[Iaude] MPEC J60: 2024 JG1 [a=1.28,e=0.40,i=1.2,H=25.8]
    mpec at cfa.harvard.edu 
    mpec at cfa.harvard.edu
       
    Sat May  4 04:37:53 EDT 2024
    
    
  
M.P.E.C. 2024-J60                                   Issued 2024 May 4, 08:36 UT
     The Minor Planet Electronic Circulars contain information on unusual
         minor planets, routine data on comets and natural satellites,
         and occasional editorial announcements.  They are published
    on behalf of Division F of the International Astronomical Union by the
          Minor Planet Center, Smithsonian Astrophysical Observatory,
                          Cambridge, MA 02138, U.S.A.
			  
             Prepared using the Tamkin Foundation Computer Network
                              MPC at CFA.HARVARD.EDU
            URL https://www.minorplanetcenter.net/    ISSN 1523-6714
                                    2024 JG1                                    
Observations:
     K24J01G* C2024 05 01.57659616 30 19.077-05 54 43.50         21.10wXEJ060F52
     K24J01G  C2024 05 01.58644916 30 25.968-05 53 49.26         21.01wXEJ060F52
     K24J01G  C2024 05 01.59628016 30 32.793-05 52 55.37         21.01wXEJ060F52
     K24J01G  C2024 05 01.60609716 30 39.652-05 52 01.23         20.77wXEJ060F52
     K24J01G KC2024 05 03.34931116 57 30.398-02 35 33.14         19.33GVEJ060I52
     K24J01G KC2024 05 03.35023816 57 31.363-02 35 27.49         20.47GVEJ060I52
     K24J01G KC2024 05 03.35116816 57 32.400-02 35 19.46         19.64GVEJ060I52
     K24J01G KC2024 05 03.35210116 57 33.379-02 35 11.22         20.21GVEJ060I52
     K24J01G mC2024 05 04.34620017 18 38.675+00 02 50.71         22.27GVEJ060I52
     K24J01G mC2024 05 04.34648617 18 39.049+00 02 54.53         20.68GVEJ060I52
     K24J01G mC2024 05 04.34677117 18 39.434+00 02 57.62         20.45GVEJ060I52
     K24J01G mC2024 05 04.34705717 18 39.877+00 03 00.54               VEJ060I52
Observer details:
F52 Pan-STARRS 2, Haleakala.  Observers J. Herman, T. Lowe, P. Minguez, A.
    Schultz, I. Smith.  Measurers K. Chambers, T. de Boer, J. Fairlamb, H.
    Gao, M. Huber, C.-C. Lin, E. Magnier, Y. Ramanjooloo, R. Wainscoat, R.
    Weryk.  1.8-m Ritchey-Chretien + CCD.
I52 Steward Observatory, Mt. Lemmon Station.  Observer V. F. Carvajal.
    Measurers T. Beuden, V. F. Carvajal, D. Fay, J. B. Fazekas, D. C. Fuls, A.
    R. Gibbs, A. D. Grauer, H. Groeller, J. K. Hogan, R. A. Kowalski, S. M.
    Larson, G. J. Leonard, D. Rankin, R. L. Seaman, F. C. Shelly, K. W.
    Wierzchos.  1.0-m prime focus + CCD.
Orbital elements:
2024 JG1                                                 Earth MOID = 0.0100 AU
Epoch 2024 Mar. 31.0 TT = JDT 2460400.5                 MPC                     
M 294.98767              (2000.0)            P               Q                  
n   0.68013241     Peri.  130.46312     +0.63874481     +0.76941861             
a   1.2805810      Node   179.23499     -0.71222923     +0.59140818             
e   0.3968043      Incl.    1.22284     -0.29109209     +0.24131178             
P   1.45           H   25.87          G   0.15           U   9                  
Residuals in seconds of arc
240501 F52  0.6-  0.2-    240503 I52 (0.4-  1.7+)   240504 I52  0.2+  0.6-
240501 F52  0.4+  0.1+    240503 I52  0.6-  0.4-    240504 I52  0.0   0.1+
240501 F52  0.1+  0.1+    240503 I52  0.2+  0.1-    240504 I52  0.1-  0.1+
240501 F52  0.0   0.2+    240503 I52  0.2+  0.3+    240504 I52  0.6+  0.1-
Ephemeris:
2024 JG1                 a,e,i = 1.28, 0.40, 1                   q = 0.7724
Date    TT    R. A. (2000) Decl.     Delta      r    Elong.  Phase     V
2024 04 04    14 59 08.4 -14 48 41   0.2689  1.2358   147.7    25.6    24.7
...
2024 04 19    15 23 28.4 -13 16 09   0.1462  1.1400   156.6    20.5    23.0
...
2024 04 27    15 52 08.7 -10 20 30   0.08766 1.0876   156.8    21.4    21.8
...
2024 05 03    16 51 11.5 -03 20 28   0.04815 1.0482   145.7    32.8    20.8
2024 05 04    17 10 36.1 -00 55 07   0.04239 1.0416   141.1    37.5    20.6
2024 05 05    17 35 39.2 +02 13 16   0.03714 1.0351   134.9    43.7    20.5
...
2024 05 11    22 38 24.4 +26 19 46   0.03166 0.9962    63.3   115.1    22.9
...
2024 05 19    01 27 07.4 +23 02 36   0.07875 0.9457    31.9   145.6    27.9
...
2024 06 03    02 23 27.6 +19 56 58   0.1905  0.8606    32.9   140.2    28.8
A. U. Tomatic                (C) Copyright 2024 MPC           M.P.E.C. 2024-J60
    
    
More information about the Iaude
mailing list